STARLINK-5636, 55454

Orbit data source: Space-Track

STARLINK-5636, 55454 is a payload satellite owned by SpaceX/Seattle (US) in LEO that was launched on Thu, 02 Feb 2023 UTC via an FALCON 9 launch vehicle from the Air Force Eastern Test Range (AFETR). Payload-class satellites include a variety of spacecraft equipped with specific instruments for various scientific and technological missions. These include communications satellites like Starlink; space stations such as the ISS; scientific satellites like the Hubble; Earth observation satellites from companies like Planet Labs, Umbra, and HawkEye 360; GPS; miniature CubeSats for education and research; and military/defense satellites.

Loading next visibility...
Identifier
55454, 2023-015F
Orbit
LEO
Country
Flag of USUS
Related business
Manufacturer
SpaceX/Seattle
Mission
Operational Commercial Communications
Bus & Motor
STARLINK, Unknown motor
Mass
305 kg wet, ~290 kg dry
Launch date (UTC)
2023-02-02 (3 years ago)
Launch vehicle
FALCON 9
Launch site
Air Force Eastern Test Range (AFETR)
Object type
Payload
Rocket body
Debris
Shape & HBR
Box + 1 Pan, 10.1 m
Radar Cross Section
13.562 m², Large (>1 m²)

Expand to show TLE details & history
Last TLE update: 2 days ago

TLE from 2 days ago
0 STARLINK-5636
1 55454U 23015F   26034.33414072  .00000813  00000-0  75288-4 0  9999
2 55454  43.0024 152.8646 0001202 271.0847  88.9858 15.02533550165584
Epoch: 2026-02-03T08:01Z
TLE epoch observation values (Epoch: 2026-02-03T08:01:09.758Z)
Latitude
0.00002°
Longitude
-100.9426°
Altitude
558.851 km
Speed
7.584 km/s
True Right ascension
10h 11m 27s
True Declination
0° 00' 00"
Sunlit
Object was in full shadow at epoch
Visualization orbit readout
Latitude
Unknown
Longitude
Unknown
Altitude
Unknown
Speed
Unknown
Apparent Right ascension
Unknown
Apparent Declination
Unknown
Sunlit
N/A
Visualization observer readout
Local Sidereal Time
01:43:41
Azimuth
Unknown
Elevation
Unknown
Doppler factor
Unknown
Orbital elements
Apogee altitude
561.845 km
Perigee altitude
560.177 km
Semi-major axis
6,939.148 km
Eccentricity
0.00012
Inclination
43.0024°
RAAN
152.8646°
Arg. of periapsis
271.0847°
True anomaly
88.99957°
Mean anomaly
88.9858°
Eccentric anomaly
88.99269°
Mean motion
3.75478 °/min
Orbital period
95.88 mins
BSTAR
0.000075288
Loading maneuver chart data...
Computing Atmospheric mass density...
Loading historical data...
Loading historical data...
Loading historical data...
Loading historical data...
Loading historical data...
Loading historical data...
Loading historical data...

Documentation

Showing up to 5 results
|